Home   Weather   Caledon   Past weeks

Flag for Canada Past Weather in Caledon, Ontario, Canada — Yesterday and Last 2 Weeks

Now
14 °F

Overcast.


Feels Like: 14 °F
Forecast: 18 / 28 °F
Wind: No wind

Location: Borden

Current Time: Dec 9, 2016 at 8:21:47 pm

Latest Report: Dec 9, 2016 at 8:00 pm


Visibility: 9 mi

Pressure: 30.36 "Hg

Humidity: 92%

Dew Point: 12 °F

Location of CaledonLocation

Past Weather in Caledon — Graph

°F

Caledon Temperature Yesterday

Maximum temperature yesterday: 34 °F (at 12:00 am)
Minimum temperature yesterday: 27 °F (at 8:59 pm)
Average temperature yesterday: 30 °F

High & Low Weather Summary for the Past Weeks

 TemperatureHumidityPressure
High57 °F (Nov 29, 12:00 pm)100% (Nov 24, 7:00 pm)30.34 "Hg (Nov 24, 7:00 pm)
Low16 °F (Dec 9, 6:00 pm)59% (Nov 29, 1:00 pm)29.41 "Hg (Nov 30, 10:54 pm)
Average36 °F90%29.96 "Hg
* Reported Nov 24 7:00 pm — Dec 9 7:00 pm, Caledon, Weather by CustomWeather, © 2016

Note: Actual official high and low records may vary slightly from our data, if they occured in-between our weather recording intervals... More about our weather records

Advertising

Caledon Weather History for the Previous 24 Hours

Scroll right to see more
 ConditionsComfort  
Time TempWeatherWind HumidityBarometerVisibility
7:00 pm
Fri, Dec 9
19 °FLight snow. Overcast.2 mph93%30.34 "Hg1 mi
6:00 pm16 °FOvercast.3 mph93%30.34 "Hg9 mi
5:00 pm19 °FLight snow. Passing clouds.3 mph93%30.32 "Hg3 mi
4:01 pm23 °FLight snow. Mostly cloudy.6 mph86%30.26 "Hg6 mi
3:02 pm21 °FLight snow. Ice fog.3 mph93%30.25 "Hg0 mi
2:03 pm21 °FIce fog.6 mph93%30.23 "Hg5 mi
1:01 pm23 °FOvercast.5 mph93%30.21 "Hg9 mi
12:00 pm23 °FLight snow. Ice fog.3 mph93%30.27 "Hg1 mi
11:00 am23 °FLight snow. Overcast.2 mph93%30.27 "Hg3 mi
10:03 am21 °FLight snow. Ice fog.2 mph93%30.23 "Hg1 mi
9:04 am19 °FLight snow. Ice fog.3 mph93%30.20 "Hg2 mi
8:00 am19 °FLight snow. Ice fog.3 mph93%30.23 "Hg1 mi
7:03 am21 °FLight snow. Ice fog.7 mph93%30.17 "Hg1 mi
6:00 am21 °FLight snow. Ice fog.5 mph93%30.19 "Hg0 mi
5:00 am21 °FLight snow. Ice fog.3 mph100%30.16 "Hg1 mi
4:57 am21 °FLight snow. Ice fog.3 mph100%30.12 "Hg1 mi
4:03 am23 °FLight snow. Ice fog.7 mph93%30.11 "Hg0 mi
3:00 am23 °FLight snow. Ice fog.6 mph93%30.12 "Hg1 mi
2:02 am25 °FLight snow. Overcast.5 mph93%30.06 "Hg2 mi
1:00 am25 °FLight snow. Ice fog.8 mph93%30.07 "Hg1 mi
12:03 am25 °FLight snow. Ice fog.6 mph93%30.02 "Hg1 mi
11:02 pm
Thu, Dec 8
27 °FLight snow. Ice fog.7 mph86%30.00 "Hg1 mi
10:04 pm27 °FLight snow. Ice fog.8 mph93%29.98 "Hg1 mi
9:00 pm27 °FLight snow. Ice fog.14 mph93%29.99 "Hg1 mi
8:59 pm27 °FLight snow. Ice fog.16 mph93%29.96 "Hg1 mi
8:03 pm28 °FLight snow. Ice fog.6 mph86%29.94 "Hg2 mi
Weather by CustomWeather, © 2016

See weather overviewHow to use our weather pages